Велинград ТХ 08.02.2021 Measurements

Back to Overview

Timestamp Temperature Humidity
5/4/2026 5:42:46 PM 16,8 C 41.0%
5/4/2026 5:35:44 PM 16,9 C 41.0%
5/4/2026 5:28:42 PM 17,0 C 41.0%
5/4/2026 5:21:40 PM 17,5 C 39.0%
5/4/2026 5:14:38 PM 18,2 C 38.0%
5/4/2026 5:07:35 PM 18,1 C 40.0%
5/4/2026 5:00:32 PM 18,0 C 42.0%
5/4/2026 4:53:28 PM 17,8 C 40.0%
5/4/2026 4:46:26 PM 18,1 C 40.0%
5/4/2026 4:39:23 PM 17,9 C 38.0%
5/4/2026 4:32:20 PM 17,4 C 40.0%
5/4/2026 4:25:16 PM 17,5 C 39.0%
5/4/2026 4:18:13 PM 17,7 C 41.0%
5/4/2026 4:11:09 PM 18,0 C 44.0%
5/4/2026 4:05:42 PM 17,5 C 39.0%
5/4/2026 3:58:40 PM 17,5 C 42.0%
5/4/2026 3:51:38 PM 17,8 C 42.0%
5/4/2026 3:44:35 PM 18,1 C 41.0%
5/4/2026 3:37:33 PM 17,8 C 39.0%
5/4/2026 3:30:31 PM 17,4 C 39.0%
5/4/2026 3:23:28 PM 17,8 C 38.0%
5/4/2026 3:16:27 PM 18,1 C 40.0%
5/4/2026 3:09:25 PM 17,5 C 40.0%
5/4/2026 3:02:22 PM 17,5 C 39.0%
5/4/2026 2:55:26 PM 17,8 C 38.0%
5/4/2026 2:48:18 PM 18,0 C 39.0%
5/4/2026 2:41:15 PM 17,8 C 36.0%
5/4/2026 2:34:11 PM 17,2 C 38.0%
5/4/2026 2:27:09 PM 17,2 C 40.0%
5/4/2026 2:20:05 PM 17,3 C 37.0%
5/4/2026 2:13:02 PM 17,5 C 38.0%
5/4/2026 2:06:00 PM 17,6 C 36.0%
5/4/2026 1:58:56 PM 17,5 C 36.0%
5/4/2026 1:51:54 PM 17,0 C 37.0%
5/4/2026 1:48:11 PM 16,8 C 43.0%
5/4/2026 1:47:28 PM 16,8 C 37.0%
5/4/2026 1:40:25 PM 16,7 C 39.0%
5/4/2026 1:33:21 PM 16,7 C 39.0%
5/4/2026 1:31:50 PM 16,5 C 44.0%
5/4/2026 1:25:35 PM 16,3 C 39.0%
5/4/2026 1:18:33 PM 16,2 C 40.0%
5/4/2026 1:18:02 PM 16,2 C 45.0%
5/4/2026 1:11:48 PM 16,0 C 40.0%
5/4/2026 1:04:45 PM 16,1 C 41.0%
5/4/2026 12:57:43 PM 16,1 C 41.0%
5/4/2026 12:50:41 PM 15,8 C 38.0%
5/4/2026 12:49:52 PM 15,7 C 43.0%
5/4/2026 12:42:50 PM 15,5 C 40.0%
5/4/2026 12:35:48 PM 15,5 C 40.0%
5/4/2026 12:28:47 PM 15,2 C 40.0%
5/4/2026 12:21:44 PM 15,1 C 41.0%
5/4/2026 12:20:20 PM 15,1 C 36.0%
5/4/2026 12:17:24 PM 15,1 C 42.0%
5/4/2026 12:11:09 PM 15,0 C 36.0%
5/4/2026 12:07:44 PM 14,8 C 42.0%
5/4/2026 12:00:41 PM 14,5 C 41.0%
5/4/2026 11:53:37 AM 14,3 C 39.0%
5/4/2026 11:47:35 AM 14,0 C 44.0%
5/4/2026 11:40:34 AM 13,7 C 42.0%
5/4/2026 11:33:32 AM 13,2 C 43.0%
5/4/2026 11:26:31 AM 13,1 C 42.0%
5/4/2026 11:19:29 AM 13,1 C 43.0%
5/4/2026 11:18:53 AM 13,1 C 48.0%
5/4/2026 11:11:49 AM 12,9 C 43.0%
5/4/2026 11:09:18 AM 12,8 C 48.0%
5/4/2026 11:07:18 AM 12,7 C 52.0%
5/4/2026 11:05:17 AM 12,5 C 46.0%
5/4/2026 10:59:41 AM 11,7 C 52.0%
5/4/2026 10:57:37 AM 11,4 C 52.0%
5/4/2026 10:54:18 AM 10,9 C 58.0%
5/4/2026 10:52:16 AM 10,5 C 64.0%
5/4/2026 10:48:20 AM 9,7 C 59.0%
5/4/2026 10:46:19 AM 9,3 C 66.0%
5/4/2026 10:45:18 AM 9,1 C 71.0%
5/4/2026 10:42:41 AM 8,7 C 66.0%
5/4/2026 10:40:52 AM 8,4 C 71.0%
5/4/2026 10:36:15 AM 7,5 C 76.0%
5/4/2026 10:29:12 AM 6,4 C 77.0%
5/4/2026 10:22:10 AM 5,8 C 77.0%
5/4/2026 10:15:06 AM 5,3 C 79.0%
5/4/2026 10:08:04 AM 4,9 C 79.0%
5/4/2026 10:01:01 AM 4,4 C 79.0%
5/4/2026 9:54:00 AM 4,0 C 79.0%
5/4/2026 9:47:04 AM 3,5 C 81.0%
5/4/2026 9:32:53 AM 2,8 C 83.0%
5/4/2026 9:25:50 AM 2,3 C 84.0%
5/4/2026 9:18:47 AM 1,9 C 85.0%
5/4/2026 9:11:43 AM 1,6 C 86.0%
5/4/2026 9:04:41 AM 1,2 C 86.0%
5/4/2026 8:57:38 AM 0,8 C 86.0%
5/4/2026 8:50:36 AM 0,4 C 87.0%
5/4/2026 8:43:32 AM 0,1 C 88.0%
5/4/2026 8:36:30 AM 0,0 C 88.0%
5/4/2026 8:29:27 AM -0,3 C 89.0%
5/4/2026 8:22:24 AM -0,6 C 89.0%
5/4/2026 8:15:22 AM -0,8 C 89.0%
5/4/2026 8:08:19 AM -1,0 C 89.0%
5/4/2026 8:01:15 AM -1,2 C 89.0%
5/4/2026 7:54:12 AM -1,5 C 89.0%
5/4/2026 7:47:10 AM -1,6 C 88.0%
5/4/2026 7:40:07 AM -1,8 C 88.0%
5/4/2026 7:33:06 AM -2,0 C 88.0%
5/4/2026 7:26:04 AM -2,1 C 89.0%
5/4/2026 7:19:00 AM -2,3 C 88.0%
5/4/2026 7:11:57 AM -2,5 C 88.0%
5/4/2026 7:04:54 AM -2,7 C 88.0%
5/4/2026 6:57:51 AM -2,8 C 88.0%
5/4/2026 6:50:48 AM -2,8 C 90.0%
5/4/2026 6:43:45 AM -3,0 C 88.0%
5/4/2026 6:36:41 AM -2,9 C 88.0%
5/4/2026 6:29:40 AM -2,9 C 87.0%
5/4/2026 6:22:37 AM -2,9 C 88.0%
5/4/2026 6:15:33 AM -2,8 C 86.0%
5/4/2026 6:08:32 AM -2,7 C 87.0%
5/4/2026 6:01:23 AM -2,6 C 86.0%
5/4/2026 5:54:28 AM -2,6 C 86.0%
5/4/2026 5:47:24 AM -2,6 C 86.0%
5/4/2026 5:40:21 AM -2,4 C 86.0%
5/4/2026 5:33:18 AM -2,4 C 85.0%
5/4/2026 5:26:15 AM -2,3 C 86.0%
5/4/2026 5:19:11 AM -2,3 C 87.0%
5/4/2026 5:12:07 AM -2,1 C 88.0%
5/4/2026 5:05:04 AM -2,1 C 87.0%
5/4/2026 4:58:00 AM -2,1 C 86.0%
5/4/2026 4:50:59 AM -2,0 C 85.0%
5/4/2026 4:43:57 AM -2,0 C 86.0%
5/4/2026 4:36:54 AM -2,1 C 86.0%
5/4/2026 4:29:52 AM -2,1 C 86.0%
5/4/2026 4:22:50 AM -2,1 C 86.0%
5/4/2026 4:15:48 AM -2,1 C 85.0%
5/4/2026 4:08:46 AM -1,9 C 85.0%
5/4/2026 4:01:45 AM -1,9 C 85.0%
5/4/2026 3:54:43 AM -1,8 C 85.0%
5/4/2026 3:47:39 AM -1,9 C 85.0%
5/4/2026 3:40:36 AM -1,8 C 84.0%
5/4/2026 3:33:33 AM -1,6 C 85.0%
5/4/2026 3:26:31 AM -1,4 C 86.0%
5/4/2026 3:19:29 AM -1,5 C 84.0%
5/4/2026 3:12:26 AM -1,4 C 84.0%
5/4/2026 3:05:25 AM -1,2 C 84.0%
5/4/2026 2:58:22 AM -1,2 C 83.0%
5/4/2026 2:51:21 AM -1,0 C 83.0%
5/4/2026 2:44:19 AM -0,9 C 82.0%
5/4/2026 2:37:17 AM -0,9 C 84.0%
5/4/2026 2:30:13 AM -0,7 C 82.0%
5/4/2026 2:23:10 AM -0,7 C 83.0%
5/4/2026 2:16:07 AM -0,7 C 83.0%
5/4/2026 2:09:06 AM -0,5 C 83.0%
5/4/2026 2:02:04 AM -0,4 C 86.0%
5/4/2026 1:57:32 AM -0,3 C 81.0%
5/4/2026 1:50:30 AM -0,1 C 81.0%
5/4/2026 1:43:27 AM -0,1 C 80.0%
5/4/2026 1:36:24 AM -0,2 C 80.0%
5/4/2026 1:29:21 AM -0,2 C 80.0%
5/4/2026 1:22:18 AM -0,1 C 80.0%
5/4/2026 1:15:15 AM 0,0 C 79.0%
5/4/2026 1:08:12 AM 0,1 C 79.0%
5/4/2026 1:01:11 AM 0,2 C 79.0%
5/4/2026 12:54:10 AM 0,3 C 79.0%
5/4/2026 12:47:08 AM 0,3 C 79.0%
5/4/2026 12:40:05 AM 0,5 C 80.0%
5/4/2026 12:33:03 AM 0,8 C 82.0%
5/4/2026 12:27:43 AM 1,0 C 77.0%
5/4/2026 12:20:39 AM 1,1 C 76.0%
5/4/2026 12:13:37 AM 1,3 C 76.0%
5/4/2026 12:06:34 AM 1,4 C 77.0%